Date,TemperatureHighF,TemperatureAvgF,TemperatureLowF,DewpointHighF,DewpointAvgF,DewpointLowF,HumidityHigh,HumidityAvg,HumidityLow,PressureMaxIn,PressureMinIn,WindSpeedMaxMPH,WindSpeedAvgMPH,GustSpeedMaxMPH,PrecipitationSumIn
2013-1-1,14,6,-1,6,1,-4,88,79,65,30.65,30.52,7,2,9,0.00
2013-1-2,21,15,5,18,9,1,87,78,62,30.61,30.44,12,4,16,0.00
2013-1-3,23,19,7,21,16,4,93,88,81,30.62,30.43,11,5,12,0.00
2013-1-4,28,18,6,20,14,3,92,84,73,30.59,30.49,15,7,17,0.00
2013-1-5,34,25,13,32,23,11,96,91,81,30.57,30.20,16,6,20,0.01
2013-1-6,31,20,11,27,16,9,91,85,79,30.64,30.20,11,3,15,0.00
2013-1-7,36,25,11,26,20,8,91,81,67,30.63,30.37,20,8,25,0.00
2013-1-8,38,31,22,32,27,20,95,85,74,30.40,30.22,21,6,24,0.00
2013-1-9,38,32,22,32,27,19,91,80,66,30.77,30.22,23,6,30,0.00
2013-1-10,38,32,22,35,28,20,97,86,71,30.79,30.10,19,8,27,0.18
2013-1-11,46,40,36,45,40,35,99,98,91,30.09,29.80,21,7,23,0.03
2013-1-12,48,31,19,44,27,16,91,83,76,30.29,29.81,21,9,26,0.00
2013-1-13,20,14,9,15,9,4,83,78,73,30.62,30.19,11,5,16,0.00
2013-1-14,24,14,5,14,8,2,90,77,60,30.86,30.62,10,2,11,0.00
2013-1-15,29,18,10,16,12,8,89,77,58,30.82,30.43,16,4,16,0.00
2013-1-16,35,26,15,32,21,10,92,81,69,30.43,30.11,20,7,21,0.00
2013-1-17,28,21,15,22,12,3,88,66,50,30.74,30.41,10,3,13,0.00
2013-1-18,43,32,15,34,25,12,90,78,66,30.76,30.13,28,10,35,0.00
2013-1-19,45,35,14,36,28,4,87,76,43,30.28,29.91,23,8,35,0.00
2013-1-20,15,10,6,4,1,-2,74,66,50,30.66,30.29,23,5,30,0.00
2013-1-21,9,2,-2,4,-6,-9,82,69,58,30.74,30.56,16,6,19,0.00
2013-1-22,8,1,-7,-2,-7,-12,80,69,59,30.86,30.74,10,3,14,0.00
2013-1-23,19,12,4,14,5,-4,85,74,64,30.85,30.51,17,7,24,0.00
2013-1-24,17,7,-1,9,-1,-8,75,69,60,31.09,30.75,13,5,15,0.00
2013-1-25,26,20,13,18,13,6,88,75,60,30.75,30.30,17,7,19,0.00
2013-1-26,25,17,6,15,8,2,85,68,49,30.78,30.58,12,3,16,0.00
2013-1-27,34,28,22,33,23,14,97,83,68,30.68,30.11,21,9,27,0.04
2013-1-28,43,37,34,37,35,33,98,93,79,30.20,29.95,17,4,19,0.15
2013-1-29,54,43,34,54,42,33,99,97,93,29.98,29.67,14,5,18,1.01
2013-1-30,34,26,14,33,24,10,98,93,83,29.94,29.52,15,7,21,0.05
2013-1-31,14,7,-3,10,2,-7,89,81,75,30.61,29.94,13,6,20,0.00
2013-2-1,6,-2,-9,3,-7,-13,89,78,69,30.81,30.58,14,5,15,0.00
2013-2-2,13,9,5,8,5,2,91,83,69,30.57,30.41,11,2,13,0.00
2013-2-3,17,14,7,14,10,5,92,83,70,30.44,30.33,12,4,16,0.00
2013-2-4,19,14,8,15,11,4,93,85,72,30.35,30.25,16,5,18,0.00
2013-2-5,29,19,6,26,16,2,93,86,77,30.46,30.15,11,5,13,0.00
2013-2-6,36,23,9,32,19,6,95,84,74,30.54,30.35,16,5,20,0.00
2013-2-7,35,32,23,33,30,22,97,95,86,30.37,30.17,18,6,19,0.22
2013-2-8,27,22,13,22,18,12,95,86,74,30.73,30.38,17,5,20,0.00
2013-2-9,29,23,12,26,20,10,95,91,85,30.74,30.37,17,8,25,0.00
2013-2-10,42,34,24,42,33,22,99,96,85,30.38,29.62,28,13,36,0.12
2013-2-11,35,28,22,33,24,18,93,84,78,30.32,29.65,28,12,41,0.00
2013-2-12,30,24,20,25,20,16,92,83,76,30.41,30.17,12,5,16,0.00
2013-2-13,35,32,23,32,28,21,94,85,76,30.17,29.94,11,4,11,0.00
2013-2-14,36,33,27,32,28,22,94,82,63,30.28,29.84,18,6,21,0.00
2013-2-15,28,19,11,23,10,4,84,69,52,30.58,30.28,14,4,20,0.00
2013-2-16,18,11,4,7,3,-1,88,72,54,30.59,30.53,9,2,12,0.00
2013-2-17,27,16,0,22,10,-4,88,76,62,30.60,30.24,20,6,23,0.00
2013-2-18,46,33,17,38,28,13,96,83,71,30.24,29.74,19,7,21,0.07
2013-2-19,17,10,4,13,5,-1,89,80,71,30.63,29.88,19,8,23,0.00
2013-2-20,21,11,2,12,4,-3,87,74,65,30.82,30.64,12,3,13,0.00
2013-2-21,25,18,11,23,14,6,95,86,75,30.81,30.31,24,10,30,0.00
2013-2-22,31,26,23,27,23,21,95,91,84,30.31,30.10,24,7,29,0.00
2013-2-23,26,22,19,21,18,15,91,84,76,30.29,30.17,14,7,15,0.00
2013-2-24,35,24,10,24,17,8,93,76,57,30.46,30.29,8,1,8,0.01
2013-2-25,38,29,18,29,23,15,93,79,68,30.48,30.28,12,3,14,0.00
2013-2-26,33,31,28,28,27,24,95,85,77,30.28,29.90,29,14,33,0.00
2013-2-27,31,30,28,30,28,26,96,95,92,30.08,29.91,16,7,22,0.01
2013-2-28,34,31,26,29,26,20,93,84,76,30.42,30.08,15,7,20,0.00
2013-3-1,26,22,13,20,17,10,92,83,73,30.59,30.42,16,5,20,0.00
2013-3-2,27,18,8,14,9,5,93,71,48,30.63,30.53,7,2,11,0.00
2013-3-3,35,19,2,17,8,-1,91,66,38,30.54,30.42,8,1,11,0.00
2013-3-4,31,24,17,25,18,9,89,77,69,30.46,30.30,21,9,25,0.00
2013-3-5,29,27,25,28,25,22,95,91,81,30.42,30.16,15,7,20,0.00
2013-3-6,32,28,24,25,22,20,89,81,74,30.65,30.43,9,4,13,0.03
2013-3-7,34,25,12,25,19,10,94,79,64,30.75,30.64,7,2,9,0.01
2013-3-8,36,27,17,28,22,15,94,83,70,30.79,30.57,18,7,23,0.00
2013-3-9,38,35,30,37,32,25,96,88,81,30.58,30.03,22,9,27,0.55
2013-3-10,41,38,34,40,37,33,98,97,94,30.03,29.83,22,6,32,0.74
2013-3-11,34,32,29,33,30,27,98,95,88,30.06,29.82,16,4,17,0.01
2013-3-12,31,26,21,27,23,18,93,85,78,30.35,30.06,15,6,20,0.00
2013-3-13,32,24,17,20,14,7,89,67,39,30.67,30.35,12,5,16,0.00
2013-3-14,34,26,17,29,22,14,95,86,75,30.67,30.38,13,3,19,0.00
2013-3-15,35,29,22,33,28,21,97,95,92,30.38,30.05,18,3,21,0.05
2013-3-16,30,27,22,29,23,19,94,84,74,30.46,30.05,14,6,18,0.00
2013-3-17,30,24,17,22,17,10,84,74,68,30.58,30.29,21,9,23,0.00
2013-3-18,32,25,16,30,22,11,94,87,75,30.29,29.88,19,8,23,0.00
2013-3-19,26,18,10,13,10,5,85,70,55,30.45,30.08,18,9,27,0.00
2013-3-20,20,14,6,11,5,-1,83,68,58,30.49,30.40,16,6,19,0.00
2013-3-21,28,18,6,14,9,3,86,69,54,30.46,30.37,7,2,11,0.00
2013-3-22,37,24,10,22,14,6,89,70,45,30.43,30.35,6,1,8,0.00
2013-3-23,36,28,18,22,20,16,94,71,52,30.45,30.34,10,3,12,0.00
2013-3-24,31,29,28,28,25,21,94,84,73,30.36,30.06,22,8,26,0.00
2013-3-25,34,30,26,26,23,19,82,75,69,30.41,30.12,18,6,22,0.00
2013-3-26,40,34,26,27,24,20,78,67,56,30.56,30.41,12,3,12,0.00
2013-3-27,42,35,28,27,24,20,81,64,44,30.62,30.56,8,1,11,0.00
2013-3-28,46,36,22,28,24,19,90,63,37,30.65,30.56,7,1,10,0.00
2013-3-29,52,41,28,31,27,24,89,59,37,30.60,30.47,8,2,9,0.00
2013-3-30,52,44,36,43,35,25,95,72,59,30.47,30.04,25,8,25,0.00
2013-3-31,45,39,30,42,33,17,96,81,51,30.18,29.97,21,5,24,0.00
2013-4-1,35,30,24,20,16,12,71,57,40,30.52,30.19,14,5,18,0.00
2013-4-2,39,30,22,20,16,13,82,58,35,30.64,30.52,13,3,17,0.00
2013-4-3,44,33,19,23,17,11,84,54,31,30.76,30.56,12,3,16,0.00
2013-4-4,57,42,29,39,29,21,75,60,44,30.56,30.21,17,6,19,0.00
2013-4-5,49,40,32,31,25,21,74,56,35,30.48,30.30,19,5,27,0.00
2013-4-6,63,46,34,50,35,22,90,66,44,30.33,29.74,25,12,33,0.01
2013-4-7,57,46,36,45,37,32,89,73,50,30.15,29.81,18,5,21,0.00
2013-4-8,65,50,38,52,44,34,97,80,56,30.16,29.80,22,7,22,0.75
2013-4-9,45,40,37,43,39,35,98,97,92,30.21,30.02,25,11,28,1.27
2013-4-10,37,35,32,36,34,31,97,96,94,30.30,30.12,26,12,29,1.06
2013-4-11,39,37,35,38,36,34,98,97,93,30.14,29.78,29,11,47,0.11
2013-4-12,40,36,33,37,33,29,98,90,77,30.07,29.76,13,6,16,0.04
2013-4-13,41,34,31,30,28,27,92,78,61,30.26,30.07,14,6,17,0.00
2013-4-14,56,41,31,48,36,27,95,83,66,30.26,29.77,31,13,38,0.13
2013-4-15,57,47,40,49,42,36,98,86,50,30.19,29.81,23,6,24,0.47
2013-4-16,53,43,32,36,32,29,87,68,44,30.52,30.19,13,4,15,0.00
2013-4-17,44,40,38,41,37,32,97,88,70,30.54,30.05,35,11,40,1.37
2013-4-18,60,47,35,59,46,32,99,95,85,30.08,29.50,31,11,32,0.71
2013-4-19,38,34,31,32,28,24,93,79,62,30.21,29.59,22,11,28,0.00
2013-4-20,44,35,26,25,21,17,82,58,34,30.66,30.22,9,2,13,0.00
2013-4-21,53,42,34,39,30,22,74,63,51,30.76,30.49,29,13,32,0.00
2013-4-22,46,45,44,37,36,36,71,71,69,30.49,30.46,17,11,26,0.00
2013-4-25,50,43,36,34,30,25,89,62,40,30.53,30.28,13,5,16,0.00
2013-4-26,68,54,39,49,39,25,77,56,43,30.52,30.35,27,12,34,0.00
2013-4-27,63,55,45,50,46,43,93,72,54,30.43,30.17,15,4,16,0.00
2013-4-28,71,57,39,50,45,36,93,66,43,30.17,29.94,8,3,12,0.00
2013-4-29,72,61,51,59,53,48,91,76,57,30.01,29.81,20,8,26,0.08
2013-4-30,86,73,60,62,55,48,90,58,27,29.96,29.78,28,13,35,0.00
2013-5-1,81,67,50,58,52,42,81,60,39,30.32,29.97,18,6,21,0.00
2013-5-2,54,44,36,42,38,33,93,78,59,30.49,30.32,18,9,21,0.04
2013-5-3,47,40,34,46,38,32,98,95,91,30.45,30.22,17,8,21,0.63
2013-5-4,69,57,48,60,51,46,97,80,53,30.24,30.16,19,8,24,0.04
2013-5-5,72,61,47,52,48,43,94,64,40,30.21,30.13,15,4,19,0.00
2013-5-6,73,63,46,50,44,41,86,54,32,30.22,30.13,16,4,19,0.00
2013-5-7,78,67,56,51,44,39,75,46,25,30.19,30.09,10,2,12,0.00
2013-5-8,80,68,53,54,48,42,74,50,28,30.16,30.07,7,2,11,0.00
2013-5-9,64,60,49,58,55,48,97,85,71,30.08,29.94,25,5,26,1.06
2013-5-10,53,47,43,48,44,41,97,91,83,30.19,30.01,15,5,21,0.09
2013-5-11,54,48,39,49,36,26,98,69,38,30.29,30.03,19,5,27,0.02
2013-5-12,55,44,34,31,27,23,74,52,30,30.37,30.29,12,3,18,0.00
2013-5-13,66,51,30,38,32,25,85,51,25,30.41,30.08,12,3,20,0.00
2013-5-14,90,73,53,62,51,38,70,48,24,30.08,29.67,25,8,33,0.00
2013-5-15,80,70,60,60,48,42,64,47,28,29.96,29.67,7,2,10,0.00
2013-5-16,83,70,53,55,47,42,74,47,25,30.05,29.95,18,3,21,0.00
2013-5-17,69,60,54,59,49,38,83,66,48,30.17,30.05,18,8,24,0.00
2013-5-18,82,68,54,66,57,47,82,70,49,30.19,30.01,14,6,21,0.00
2013-5-19,84,73,63,68,62,55,90,71,47,30.03,29.68,26,9,40,0.04
2013-5-20,80,71,61,65,62,57,97,75,55,29.86,29.68,19,8,26,0.40
2013-5-21,75,68,60,63,59,56,93,75,59,29.77,29.68,18,6,23,0.00
2013-5-22,73,62,56,61,57,54,95,84,56,29.88,29.72,10,2,13,0.03
2013-5-23,63,55,46,56,46,36,95,75,41,30.48,29.88,16,6,19,0.02
2013-5-24,64,52,36,43,38,34,95,63,33,30.68,30.48,12,3,14,0.00
2013-5-25,57,52,46,44,40,36,88,66,47,30.60,30.48,16,4,20,0.02
2013-5-26,62,52,44,53,44,35,92,75,49,30.51,30.32,19,6,21,0.11
2013-5-27,56,54,51,55,52,46,98,94,82,30.32,30.02,21,8,21,0.00
2013-5-28,71,62,52,69,60,51,99,96,85,30.03,29.81,13,3,14,0.90
2013-5-29,81,70,61,71,65,60,99,86,67,30.02,29.86,20,4,23,0.91
2013-5-30,82,71,62,71,66,60,98,84,64,29.95,29.74,24,10,34,0.29
2013-5-31,76,68,62,66,63,60,96,86,62,29.87,29.74,19,8,29,0.00
2013-6-1,78,68,60,66,62,56,98,82,52,29.82,29.71,17,4,21,0.01
2013-6-2,64,55,47,57,47,42,91,75,56,30.20,29.83,9,2,13,0.00
2013-6-3,71,58,40,52,45,39,97,68,37,30.30,30.18,7,1,15,0.00
2013-6-4,67,60,52,54,49,44,86,68,44,30.33,30.20,17,4,20,0.06
2013-6-5,66,58,52,59,53,48,95,86,72,30.26,30.08,13,5,17,0.11
2013-6-6,59,55,52,55,53,51,97,93,85,30.13,30.06,12,3,13,0.29
2013-6-7,71,59,51,57,52,50,95,78,52,30.17,30.06,10,2,13,0.00
2013-6-8,71,62,50,53,50,46,91,67,45,30.14,30.08,12,3,16,0.00
2013-6-9,77,66,57,65,57,47,96,74,55,30.12,29.89,24,7,29,0.31
2013-6-10,81,69,57,66,62,56,98,81,55,29.97,29.87,9,1,13,0.00
2013-6-11,84,72,57,69,64,56,98,78,55,30.02,29.88,12,2,13,0.00
2013-6-12,83,72,64,72,67,62,96,84,63,30.01,29.67,17,4,29,0.13
2013-6-13,79,68,56,63,58,55,96,73,49,30.16,29.81,12,2,16,0.00
2013-6-14,77,67,53,61,56,52,94,71,49,30.28,30.09,11,4,15,0.00
2013-6-15,83,70,60,72,63,55,93,79,61,30.15,29.90,13,5,17,0.03
2013-6-16,86,75,62,70,60,49,94,64,29,30.00,29.95,11,2,15,0.00
2013-6-17,89,73,60,64,58,53,82,61,34,30.03,29.94,14,2,21,0.00
2013-6-18,71,64,56,60,54,50,89,73,58,30.23,30.02,15,5,17,0.00
2013-6-19,83,67,52,58,52,45,82,60,37,30.30,30.17,12,3,14,0.00
2013-6-20,86,74,59,64,58,50,73,58,39,30.25,30.11,15,5,17,0.00
2013-6-21,75,71,64,68,65,61,97,81,63,30.18,29.90,18,4,24,1.32
2013-6-22,84,72,65,76,68,64,98,87,69,30.25,29.99,27,6,29,5.36
2013-6-23,83,72,62,75,68,61,97,86,69,30.18,29.91,14,4,18,0.07
2013-6-24,79,71,67,70,67,64,97,89,70,30.11,29.91,13,4,27,0.29
2013-6-25,81,71,64,76,69,64,98,94,83,30.06,29.87,14,3,18,1.88
2013-6-26,85,75,67,74,70,65,96,86,59,29.86,29.77,15,3,20,0.23
2013-6-27,88,77,67,74,68,61,98,75,44,29.89,29.77,10,1,16,0.00
2013-6-28,79,70,61,67,62,58,92,77,56,29.82,29.71,12,2,16,0.01
2013-6-29,71,66,62,66,62,59,97,89,74,29.95,29.72,16,3,23,0.48
2013-6-30,77,68,59,63,56,50,88,68,48,30.17,29.95,16,4,21,0.00
2013-7-1,77,67,54,59,54,50,90,65,40,30.25,30.17,14,4,22,0.00
2013-7-2,74,64,53,60,54,44,94,71,37,30.25,30.18,12,2,17,0.00
2013-7-3,71,61,49,62,56,48,97,85,71,30.24,30.16,5,0,6,0.00
2013-7-4,81,70,57,65,60,56,97,74,46,30.22,30.10,11,2,15,0.00
2013-7-5,82,74,63,69,64,60,91,73,54,30.16,30.06,13,4,19,0.00
2013-7-6,84,74,64,69,65,60,88,74,54,30.12,30.02,11,4,15,0.00
2013-7-7,86,77,67,74,70,65,94,79,62,30.06,29.97,10,4,14,0.00
2013-7-8,90,78,71,78,72,69,95,83,61,30.03,29.96,12,3,19,0.32
2013-7-9,83,77,71,76,73,69,97,89,76,30.04,29.89,13,3,22,0.18
2013-7-10,80,73,62,74,65,58,97,76,52,30.12,29.92,11,2,11,0.01
2013-7-11,80,68,55,64,59,54,98,74,46,30.25,30.12,8,1,9,0.00
2013-7-12,82,70,59,63,59,54,91,68,44,30.28,30.17,9,2,13,0.00
2013-7-13,82,71,60,67,61,55,88,70,49,30.27,30.18,11,3,14,0.00
2013-7-14,85,76,65,71,66,59,85,72,55,30.31,30.25,10,4,17,0.00
2013-7-15,90,80,70,76,71,66,89,75,57,30.35,30.26,10,2,11,0.00
2013-7-16,91,82,72,78,75,71,96,81,62,30.35,30.29,10,2,12,0.00
2013-7-17,93,83,73,78,75,72,97,77,55,30.37,30.22,7,1,10,0.00
2013-7-18,91,82,72,76,74,70,97,77,57,30.23,29.96,13,3,17,0.00
2013-7-19,89,80,68,76,72,64,87,75,62,29.95,29.79,18,4,18,0.00
2013-7-20,87,74,60,70,65,59,97,77,51,30.03,29.90,8,1,10,0.00
2013-7-21,83,69,62,71,63,59,92,82,61,30.05,29.93,19,6,27,0.00
2013-7-22,85,72,61,73,66,60,97,84,62,30.00,29.78,13,3,22,0.29
2013-7-23,75,67,55,62,59,53,96,76,54,30.11,29.82,11,2,15,0.00
2013-7-24,76,64,51,59,54,50,96,72,42,30.22,30.11,8,1,10,0.00
2013-7-25,80,67,52,66,59,49,95,77,60,30.22,30.10,11,3,19,0.14
2013-7-26,77,67,58,70,62,55,97,85,55,30.10,29.95,9,2,20,0.47
2013-7-27,62,56,52,55,49,46,91,79,62,30.11,30.04,9,2,14,0.00
2013-7-28,68,58,51,56,52,48,95,79,60,30.20,30.03,7,1,13,0.00
2013-7-29,78,64,49,61,56,48,97,77,52,30.31,30.20,5,1,8,0.00
2013-7-30,69,64,57,64,60,55,97,89,79,30.30,30.20,9,3,13,0.29
2013-7-31,79,69,62,69,64,61,98,86,66,30.21,30.07,6,1,11,0.02
2013-8-1,79,68,57,62,59,55,98,74,46,30.14,30.01,10,1,13,0.02
2013-8-2,82,70,61,70,62,59,96,77,48,30.07,29.95,7,1,9,0.02
2013-8-3,78,67,52,62,55,51,96,69,44,30.28,30.08,6,1,10,0.00
2013-8-4,77,65,50,60,56,49,97,74,46,30.36,30.24,8,2,12,0.00
2013-8-5,70,64,58,66,60,55,97,90,75,30.24,29.97,15,4,21,0.29
2013-8-6,82,73,66,73,69,65,98,87,71,29.99,29.87,11,3,17,0.00
2013-8-7,82,73,64,71,67,62,97,81,57,30.06,29.83,9,2,14,0.00
2013-8-8,79,68,58,65,61,57,97,81,54,30.17,30.06,9,2,16,0.00
2013-8-9,79,69,57,67,61,56,95,78,59,30.19,30.09,5,1,9,0.00
2013-8-10,77,66,54,61,56,53,95,74,46,30.29,30.19,7,1,10,0.00
2013-8-11,78,65,54,68,61,52,97,86,67,30.28,30.14,8,1,12,0.02
2013-8-12,81,70,60,70,64,57,97,82,56,30.16,30.00,6,1,9,0.12
2013-8-13,70,62,53,58,52,48,92,72,49,30.32,30.09,13,2,13,0.00
2013-8-14,75,60,46,57,51,44,97,74,45,30.40,30.28,4,1,7,0.00
2013-8-15,79,65,54,60,55,51,93,73,42,30.32,30.23,6,1,10,0.00
2013-8-16,80,67,52,61,55,50,97,69,40,30.33,30.27,6,1,10,0.00
2013-8-17,80,68,51,60,55,50,97,68,39,30.38,30.28,10,2,14,0.00
2013-8-18,82,69,53,62,57,51,95,68,42,30.35,30.21,13,2,13,0.00
2013-8-19,82,70,56,68,61,53,95,76,51,30.23,30.12,10,2,14,0.00
2013-8-20,85,74,63,69,65,60,95,75,52,30.18,30.08,13,4,17,0.00
2013-8-21,88,77,68,72,69,65,92,76,56,30.11,30.00,20,5,23,0.02
2013-8-22,77,70,65,71,68,63,97,91,77,30.22,30.05,13,2,17,0.70
2013-8-23,81,70,59,64,61,54,98,74,48,30.31,30.21,13,4,16,0.01
2013-8-24,82,72,59,69,62,52,86,73,61,30.36,30.24,12,4,16,0.00
2013-8-25,88,77,68,73,68,65,91,75,52,30.30,30.17,17,6,21,0.00
2013-8-26,90,79,68,77,71,65,90,78,62,30.19,30.02,12,4,15,0.00
2013-8-27,93,82,72,76,73,69,92,76,56,30.03,29.85,19,4,20,0.00
2013-8-28,83,76,71,74,72,68,97,86,71,30.11,29.88,9,2,14,0.00
2013-8-29,87,76,65,72,69,64,97,79,56,30.17,30.03,11,3,14,0.00
2013-8-30,95,80,69,80,73,68,97,82,57,30.04,29.79,12,3,21,0.00
2013-8-31,79,70,64,70,66,62,97,87,74,29.94,29.86,12,3,22,0.15
2013-9-1,86,72,62,74,66,59,98,84,53,29.95,29.81,8,2,11,0.01
2013-9-2,72,63,52,60,57,50,96,82,59,30.16,29.94,8,2,10,0.00
2013-9-3,77,61,45,58,52,44,98,78,46,30.27,30.16,6,1,12,0.01
2013-9-4,87,69,49,66,59,48,98,75,44,30.28,30.18,8,1,10,0.00
2013-9-5,76,68,59,65,60,51,96,77,60,30.35,30.22,14,6,20,0.00
2013-9-6,86,71,57,67,59,50,82,68,51,30.35,30.08,15,4,18,0.00
2013-9-7,90,77,65,72,67,62,90,72,53,30.08,29.93,12,3,18,0.00
2013-9-8,75,69,64,71,65,61,91,88,81,30.14,30.01,17,7,23,0.00
2013-9-9,94,78,66,77,70,64,96,78,50,30.05,29.84,16,5,19,0.00
2013-9-10,95,83,72,69,65,62,77,57,34,30.01,29.90,19,5,25,0.00
2013-9-11,85,73,65,68,66,63,95,79,52,30.12,30.01,8,1,12,0.07
2013-9-12,75,65,57,64,55,48,97,73,44,30.27,30.08,12,2,17,0.00
2013-9-13,66,56,44,48,42,37,92,63,36,30.40,30.27,11,3,14,0.00
2013-9-14,71,57,37,50,44,35,96,66,41,30.38,30.16,13,3,16,0.00
2013-9-15,60,55,53,57,52,46,96,91,60,30.40,30.11,11,2,14,0.98
2013-9-16,64,55,47,55,47,42,94,75,48,30.60,30.40,13,5,16,0.00
2013-9-17,67,57,44,57,51,42,95,82,64,30.54,30.24,16,5,21,0.03
2013-9-18,76,68,60,69,62,55,91,83,76,30.24,29.97,15,6,21,0.00
2013-9-19,89,73,65,74,68,63,97,88,55,29.98,29.77,18,5,36,0.98
2013-9-20,68,63,53,65,59,51,97,87,65,29.99,29.82,8,2,14,0.00
2013-9-21,63,54,45,51,49,43,97,83,62,30.14,29.98,8,1,12,0.01
2013-9-22,66,53,41,52,47,40,97,80,56,30.27,30.14,12,3,14,0.01
2013-9-23,69,56,45,54,49,43,95,77,54,30.30,30.17,13,6,18,0.00
2013-9-24,71,59,49,54,51,46,92,76,48,30.20,30.08,12,5,18,0.00
2013-9-25,72,59,46,57,51,45,96,78,50,30.15,30.07,11,4,16,0.00
2013-9-26,77,62,50,58,53,48,97,76,48,30.22,30.13,16,5,17,0.00
2013-9-27,80,67,54,57,53,48,88,64,32,30.27,30.13,16,6,20,0.00
2013-9-28,80,64,52,66,57,51,97,78,56,30.15,29.93,28,7,33,0.25
2013-9-29,71,57,42,56,47,42,98,73,37,30.24,30.11,5,1,8,0.01
2013-9-30,74,60,46,52,47,42,88,64,38,30.16,29.96,18,5,21,0.00
2013-10-1,81,66,56,64,58,52,95,77,53,30.09,29.96,15,4,18,0.00
2013-10-2,78,63,47,56,48,42,97,64,30,30.25,30.09,11,4,16,0.00
2013-10-3,73,65,57,69,61,47,96,88,60,30.09,29.91,11,4,17,0.05
2013-10-4,68,66,64,66,64,62,97,95,85,30.10,29.96,26,4,26,0.42
2013-10-5,74,67,54,70,64,46,98,91,70,30.02,29.84,14,5,19,0.05
2013-10-6,55,47,41,46,42,39,95,81,57,29.95,29.84,14,2,18,0.02
2013-10-7,69,54,42,50,45,40,96,75,41,30.27,29.92,9,2,14,0.00
2013-10-8,75,59,41,53,46,39,95,65,34,30.33,30.24,17,4,22,0.00
2013-10-9,72,61,51,51,46,40,87,61,35,30.36,30.26,12,4,16,0.00
2013-10-10,74,60,44,54,50,42,94,70,44,30.33,30.17,14,3,16,0.00
2013-10-11,75,64,53,60,55,50,91,75,52,30.18,30.00,27,7,28,0.00
2013-10-12,68,61,45,59,50,38,88,68,42,30.32,30.00,13,4,19,0.00
2013-10-13,61,48,35,44,36,32,94,66,36,30.64,30.33,8,1,12,0.00
2013-10-14,62,48,32,45,40,30,95,75,53,30.66,30.30,21,6,24,0.00
2013-10-15,60,53,49,58,48,43,97,85,70,30.30,29.90,17,8,21,0.17
2013-10-16,52,48,46,49,46,44,96,92,84,30.14,29.97,13,3,16,0.00
2013-10-17,56,47,41,46,42,37,97,86,59,30.12,30.01,8,1,11,0.12
2013-10-18,47,43,37,42,38,35,95,84,66,30.17,30.02,8,2,13,0.00
2013-10-19,51,41,31,40,36,30,95,84,52,30.15,29.96,18,3,19,0.00
2013-10-20,50,41,29,47,38,28,97,90,73,30.08,29.92,16,3,20,0.06
2013-10-21,45,38,29,42,30,24,92,73,50,30.22,30.00,15,3,21,0.00
2013-10-22,45,33,23,32,27,21,93,78,54,30.25,30.18,4,1,8,0.00
2013-10-23,41,34,26,31,27,24,95,77,54,30.31,30.24,9,1,12,0.00
2013-10-24,43,35,28,28,26,23,81,69,52,30.60,30.31,8,2,13,0.00
2013-10-25,51,38,23,33,27,20,91,66,42,30.68,30.20,18,6,24,0.00
2013-10-26,52,44,33,37,31,27,81,61,43,30.31,30.05,17,4,21,0.00
2013-10-27,54,40,27,34,29,25,92,68,40,30.31,30.15,14,3,17,0.00
2013-10-28,43,40,32,34,32,27,86,74,68,30.66,30.28,21,8,23,0.00
2013-10-29,53,44,36,43,37,29,84,77,68,30.65,30.33,18,6,22,0.00
2013-10-30,58,50,43,56,49,40,98,95,84,30.34,29.91,16,5,25,0.00
2013-10-31,61,54,42,60,53,40,98,95,91,29.90,29.43,13,5,16,0.81
2013-11-1,46,42,37,43,40,36,94,90,85,29.98,29.52,12,3,16,0.01
2013-11-2,49,40,31,38,34,28,95,79,58,30.41,29.98,8,2,13,0.01
2013-11-3,50,39,25,38,32,24,96,78,54,30.56,30.41,22,6,27,0.00
2013-11-4,52,47,41,45,40,36,84,76,68,30.43,30.24,22,9,27,0.00
2013-11-5,53,50,46,52,47,43,97,90,82,30.45,30.02,25,6,29,0.30
2013-11-6,55,42,30,54,37,24,97,85,59,30.43,29.88,19,6,25,0.26
2013-11-7,41,32,26,32,28,23,90,84,69,30.54,30.43,11,2,13,0.00
2013-11-8,47,36,23,36,29,22,96,77,55,30.60,30.03,24,6,33,0.00
2013-11-9,52,46,36,42,37,25,82,71,54,30.35,30.01,20,7,29,0.00
2013-11-10,47,40,32,33,30,27,81,70,54,30.59,30.35,12,4,14,0.00
2013-11-11,43,32,18,35,27,14,95,82,68,30.90,30.31,16,5,21,0.03
2013-11-12,28,21,14,18,14,11,86,76,57,31.11,30.90,10,3,12,0.00
2013-11-13,41,29,15,21,17,12,86,64,42,30.95,30.40,22,9,26,0.00
2013-11-14,46,38,30,31,26,20,73,62,52,30.39,30.14,15,7,22,0.00
2013-11-15,53,43,34,38,34,28,85,71,54,30.17,30.08,11,5,16,0.00
2013-11-16,57,49,38,55,47,34,97,93,84,30.08,29.63,35,13,35,0.13
2013-11-17,57,49,38,55,47,33,97,92,83,29.91,29.29,22,7,29,0.80
2013-11-18,38,33,25,33,26,21,88,77,59,30.56,29.92,15,5,25,0.00
2013-11-19,40,30,18,30,24,17,95,80,60,30.66,30.52,15,5,19,0.00
2013-11-20,38,35,32,34,31,28,96,85,72,30.52,30.34,19,9,28,0.08
2013-11-21,41,38,36,39,37,35,97,94,89,30.53,30.36,7,2,12,0.00
2013-11-22,37,30,20,35,24,15,96,81,59,30.79,30.53,13,4,15,0.02
2013-11-23,21,16,8,15,7,3,84,69,53,31.14,30.76,17,5,22,0.00
2013-11-24,26,16,4,11,6,1,90,67,40,31.13,30.66,18,7,24,0.00
2013-11-25,29,25,19,26,21,11,94,83,58,30.66,30.36,17,9,25,0.00
2013-11-26,31,25,11,26,18,3,89,74,59,30.57,30.33,12,4,17,0.00
2013-11-27,24,16,7,13,9,2,84,73,60,30.67,30.56,9,3,12,0.00
2013-11-28,29,22,14,18,14,10,89,72,63,30.86,30.49,12,2,15,0.00
2013-11-29,30,22,6,22,16,4,94,78,64,31.00,30.69,13,4,20,0.00
2013-11-30,43,33,26,34,27,22,94,80,69,30.68,30.33,15,5,17,0.00
2013-12-1,40,32,26,30,27,24,94,81,65,30.43,30.25,10,2,14,0.00
2013-12-2,38,32,27,33,29,24,96,89,80,30.24,29.97,18,7,21,0.02
2013-12-3,38,36,33,38,36,32,98,97,96,29.98,29.87,16,6,18,0.06
2013-12-4,48,40,31,48,39,29,99,98,93,29.96,29.66,19,7,27,0.02
2013-12-5,31,19,12,29,14,8,93,80,70,30.66,29.89,20,8,26,0.00
2013-12-6,16,9,5,7,4,1,85,77,62,31.00,30.63,9,3,13,0.00
2013-12-7,15,6,0,4,0,-4,86,75,55,31.17,31.01,7,2,11,0.00
2013-12-8,19,14,7,17,10,2,93,84,70,31.06,30.34,14,5,18,0.00
2013-12-9,16,6,-8,15,2,-11,93,84,69,30.61,30.31,17,5,23,0.00
2013-12-10,15,7,-9,12,2,-12,90,80,67,30.70,30.36,16,7,25,0.00
2013-12-11,14,6,-8,12,0,-12,91,76,55,30.98,30.67,10,3,15,0.00
2013-12-12,15,7,-8,8,2,-11,87,79,72,30.96,30.61,14,6,20,0.00
2013-12-13,23,18,11,19,14,7,90,84,73,30.62,30.49,20,7,24,0.00
2013-12-14,23,20,17,20,17,12,92,88,83,30.52,30.30,19,6,22,0.00
2013-12-15,16,10,6,12,3,-2,87,75,65,30.53,30.30,12,4,20,0.00
2013-12-16,15,8,1,13,2,-6,93,79,63,30.57,30.42,8,2,10,0.00
2013-12-17,33,23,15,26,18,9,94,82,62,30.46,30.28,19,6,20,0.00
2013-12-18,34,23,11,25,16,9,91,77,57,30.46,30.09,22,6,26,0.00
2013-12-19,30,27,22,27,24,20,96,89,79,30.25,30.11,18,7,21,0.00
2013-12-20,24,22,20,22,20,19,95,93,91,30.18,30.10,14,6,20,0.00
2013-12-21,26,24,22,25,23,21,96,95,95,30.20,30.01,12,4,20,0.00
2013-12-22,26,24,20,25,22,18,95,94,92,30.45,30.00,13,4,19,0.00
2013-12-23,20,3,-8,18,-1,-12,92,84,76,30.91,30.46,11,4,12,0.00
2013-12-24,11,-2,-15,9,-5,-19,90,83,74,31.07,30.76,11,3,14,0.00
2013-12-25,22,18,11,20,16,9,93,91,83,30.75,30.46,13,7,17,0.00
2013-12-26,28,20,10,23,17,7,89,86,81,30.58,30.48,12,2,15,0.00
2013-12-27,37,25,11,30,22,9,95,88,77,30.60,30.35,14,4,20,0.00
2013-12-28,42,35,26,34,30,24,92,81,70,30.36,30.00,17,7,21,0.06
2013-12-29,38,19,-4,32,14,-11,91,80,72,30.60,29.98,20,6,24,0.00
2013-12-30,2,-4,-15,-3,-10,-19,87,76,56,30.76,30.60,5,1,6,0.00
2013-12-31,6,0,-10,3,-3,-14,90,86,81,30.82,30.68,12,1,13,0.00
2014-1-1,9,4,0,3,-1,-6,85,78,71,30.81,30.72,19,8,19,0.00
2014-1-2,11,5,-10,3,-1,-13,86,75,67,30.88,30.69,12,4,20,0.00